WV5G-13 Weather Reports


Display with metric or nautical units.
time (UTC)temp
F
wind
direction
speed
MPH
gust
MPH
rain 1hr
in
rain 24hr
in
rain mn
in
humidity
%
barometer
mb
20260505205726 61 24 9.0 11.0 0.00 0.00 0.00 42 1008.1
20260505205224 61 39 12.0 15.0 0.00 0.00 0.00 42 1008.5
20260505204720 62 43 12.0 18.0 0.00 0.00 0.00 41 1008.0
20260505204219 61 67 8.0 16.0 0.00 0.00 0.00 42 1008.3
20260505203715 62 66 8.0 11.0 0.00 0.00 0.00 42 1008.3
20260505203212 60 58 12.0 18.0 0.00 0.00 0.00 43 1008.2
20260505202708 60 48 7.0 17.0 0.00 0.00 0.00 43 1008.7
20260505202204 60 79 6.0 14.0 0.00 0.00 0.00 43 1008.6
20260505201701 61 7 8.0 13.0 0.00 0.00 0.00 43 1008.5
20260505201159 60 46 9.0 11.0 0.00 0.00 0.00 43 1008.5
20260505200657 60 43 12.0 12.0 0.00 0.00 0.00 43 1008.6
20260505200153 60 21 8.0 17.0 0.00 0.00 0.00 43 1008.3
20260505195649 60 38 6.0 18.0 0.00 0.00 0.00 42 1008.3
20260505195147 61 35 16.0 21.0 0.00 0.00 0.00 42 1008.1
20260505194644 61 69 12.0 20.0 0.00 0.00 0.00 42 1008.0
20260505194140 61 13 9.0 16.0 0.00 0.00 0.00 44 1008.3
20260505193637 60 23 9.0 18.0 0.00 0.00 0.00 44 1008.5
20260505193134 61 23 8.0 26.0 0.00 0.00 0.00 43 1008.5
20260505192632 60 19 11.0 16.0 0.00 0.00 0.00 44 1008.7
20260505192129 60 20 6.0 17.0 0.00 0.00 0.00 44 1008.6
20260505191628 60 60 9.0 14.0 0.00 0.00 0.00 43 1008.5
20260505191125 60 347 7.0 16.0 0.00 0.00 0.00 44 1008.5
20260505190621 60 13 11.0 20.0 0.00 0.00 0.00 43 1008.8
20260505190116 60 14 15.0 22.0 0.00 0.00 0.00 43 1008.6
20260505185613 59 1 13.0 19.0 0.00 0.00 0.00 45 1008.9
20260505185109 59 52 15.0 20.0 0.00 0.00 0.00 44 1008.8
20260505184606 58 40 13.0 20.0 0.00 0.00 0.00 45 1008.9
20260505184103 59 33 9.0 21.0 0.00 0.00 0.00 44 1008.7
20260505183559 59 1 13.0 21.0 0.00 0.00 0.00 44 1008.8
20260505183057 59 0 9.0 17.0 0.00 0.00 0.00 45 1008.5
20260505182553 59 34 12.0 22.0 0.00 0.00 0.00 44 1008.6
20260505182050 59 22 14.0 20.0 0.00 0.00 0.00 44 1008.7
20260505181547 59 29 17.0 22.0 0.00 0.00 0.00 44 1008.8
20260505181044 58 21 14.0 25.0 0.00 0.00 0.00 46 1008.9
20260505180540 59 1 16.0 24.0 0.00 0.00 0.00 47 1008.9
20260505180038 59 30 11.0 20.0 0.00 0.00 0.00 44 1008.7
20260505175538 58 17 12.0 28.0 0.00 0.00 0.00 45 1009.0
20260505175035 59 0 9.0 22.0 0.00 0.00 0.00 45 1008.9
20260505174532 60 6 20.0 22.0 0.00 0.00 0.00 43 1008.8
20260505174028 58 37 12.0 20.0 0.00 0.00 0.00 45 1009.0
20260505173525 58 6 11.0 19.0 0.00 0.00 0.00 46 1008.9
20260505173022 57 324 9.0 20.0 0.00 0.00 0.00 47 1008.9
20260505172520 58 4 14.0 22.0 0.00 0.00 0.00 46 1008.9
20260505172015 59 4 13.0 19.0 0.00 0.00 0.00 45 1008.7
20260505171511 58 26 17.0 26.0 0.00 0.00 0.00 46 1008.8
20260505171008 57 7 16.0 22.0 0.00 0.00 0.00 47 1008.8
20260505170504 59 40 11.0 18.0 0.00 0.00 0.00 47 1008.7
20260505170000 58 14 19.0 22.0 0.00 0.00 0.00 46 1008.8
20260505165456 57 17 12.0 22.0 0.00 0.00 0.00 47 1008.7
20260505164952 58 8 9.0 22.0 0.00 0.00 0.00 48 1008.8
20260505164448 58 18 7.0 18.0 0.00 0.00 0.00 47 1008.9
20260505163946 58 10 12.0 18.0 0.00 0.00 0.00 47 1008.8
20260505163445 57 11 12.0 22.0 0.00 0.00 0.00 47 1008.8
20260505162944 58 6 12.0 23.0 0.00 0.00 0.00 48 1008.7
20260505162439 57 22 14.0 27.0 0.00 0.00 0.00 48 1008.9
20260505161936 58 13 18.0 23.0 0.00 0.00 0.00 48 1008.8
20260505161433 57 22 14.0 22.0 0.00 0.00 0.00 48 1008.7
20260505160930 57 15 13.0 21.0 0.00 0.00 0.00 50 1008.5
20260505160429 56 24 17.0 31.0 0.00 0.00 0.00 50 1008.2
20260505152904 56 9 14.0 23.0 0.00 0.00 0.00 50 1008.2
20260505152356 55 12 20.0 24.0 0.00 0.00 0.00 48 1008.0
20260505151855 55 10 11.0 20.0 0.00 0.00 0.00 49 1008.0
20260505151352 56 11 10.0 20.0 0.00 0.00 0.00 49 1007.7
20260505150849 56 18 12.0 24.0 0.00 0.00 0.00 49 1007.4
20260505150347 56 8 15.0 26.0 0.00 0.00 0.00 48 1007.2
20260505140311 54 1 13.0 21.0 0.00 0.00 0.00 49 1007.6
20260505130229 52 1 13.0 20.0 0.00 0.00 0.00 54 1005.7
20260505124719 52 6 15.0 25.0 0.00 0.00 0.00 53 1005.6
20260505124216 52 3 10.0 20.0 0.00 0.00 0.00 54 1005.4
20260505123711 52 0 12.0 30.0 0.00 0.00 0.00 54 1005.6
20260505123208 53 354 15.0 23.0 0.00 0.00 0.00 54 1005.3
20260505122704 53 1 12.0 18.0 0.00 0.00 0.00 54 1005.1
20260505122201 53 316 9.0 16.0 0.00 0.00 0.00 55 1005.1
20260505121653 54 358 7.0 17.0 0.00 0.00 0.00 54 1005.3
20260505121149 54 3 15.0 23.0 0.00 0.00 0.00 54 1005.1
20260505120646 54 358 13.0 14.0 0.00 0.00 0.00 55 1005.0
20260505120141 54 11 8.0 16.0 0.00 0.00 0.00 56 1004.8
20260505115635 54 339 6.0 18.0 0.00 0.00 0.00 56 1004.8
20260505115134 54 358 15.0 21.0 0.00 0.00 0.00 57 1004.8
20260505114630 54 0 8.0 17.0 0.00 0.00 0.00 57 1004.6
20260505114127 54 345 9.0 20.0 0.00 0.00 0.00 57 1004.4
20260505113623 54 353 13.0 17.0 0.00 0.00 0.00 57 1004.3
20260505113120 54 349 8.0 18.0 0.00 0.00 0.00 57 1004.3
20260505112616 55 342 10.0 20.0 0.00 0.00 0.00 57 1004.6
20260505112114 55 353 11.0 19.0 0.00 0.00 0.00 57 1004.3
20260505111608 55 342 11.0 19.0 0.00 0.00 0.00 58 1004.6
20260505111104 55 333 9.0 21.0 0.00 0.00 0.00 57 1004.2
20260505110601 55 3 9.0 20.0 0.00 0.00 0.00 58 1004.1
20260505102033 59 321 11.0 24.0 0.00 0.00 0.00 52 1004.0
20260505101532 59 321 16.0 26.0 0.00 0.00 0.00 51 1004.1
20260505101028 60 333 10.0 24.0 0.00 0.00 0.00 49 1003.8
20260505100525 61 322 17.0 30.0 0.00 0.00 0.00 44 1003.4
20260505100022 62 321 19.0 20.0 0.00 0.00 0.00 39 1003.1
20260505095518 63 325 17.0 30.0 0.00 0.00 0.00 35 1003.2
20260505095014 64 317 12.0 27.0 0.00 0.00 0.00 33 1002.8
20260505094511 65 317 18.0 25.0 0.00 0.00 0.00 30 1002.8
20260505094007 66 320 27.0 27.0 0.00 0.00 0.00 27 1002.4
20260505093503 67 316 11.0 25.0 0.00 0.00 0.00 26 1002.3
20260505093001 68 300 13.0 22.0 0.00 0.00 0.00 25 1002.2
20260505092458 68 316 7.0 17.0 0.00 0.00 0.00 26 1002.1
20260505091956 66 312 7.0 12.0 0.00 0.00 0.00 29 1002.1
20260505091453 65 303 5.0 11.0 0.00 0.00 0.00 30 1002.1
20260505090951 65 312 5.0 14.0 0.00 0.00 0.00 29 1002.0
20260505090449 65 311 4.0 10.0 0.00 0.00 0.00 29 1002.1
20260505085946 65 273 7.0 12.0 0.00 0.00 0.00 30 1001.7
20260505085444 65 258 5.0 12.0 0.00 0.00 0.00 29 1001.8
20260505084942 64 254 8.0 11.0 0.00 0.00 0.00 30 1001.3
20260505084440 64 246 5.0 10.0 0.00 0.00 0.00 30 1001.6
20260505083938 64 246 8.0 12.0 0.00 0.00 0.00 30 1001.3
20260505083435 65 250 7.0 14.0 0.00 0.00 0.00 30 1001.2
20260505082931 65 231 8.0 13.0 0.00 0.00 0.00 29 1001.4
20260505082427 66 251 8.0 14.0 0.00 0.00 0.00 29 1001.3
20260505081924 66 247 9.0 14.0 0.00 0.00 0.00 29 1001.3
20260505081421 66 254 11.0 13.0 0.00 0.00 0.00 29 1001.2
20260505080917 66 254 4.0 15.0 0.00 0.00 0.00 29 1001.4
20260505080414 66 248 9.0 13.0 0.00 0.00 0.00 28 1001.4
20260505075909 66 253 10.0 14.0 0.00 0.00 0.00 28 1001.6
20260505075406 67 257 5.0 13.0 0.00 0.00 0.00 28 1001.6
20260505074903 67 255 6.0 11.0 0.00 0.00 0.00 27 1001.8
20260505074400 67 257 9.0 15.0 0.00 0.00 0.00 27 1002.0
20260505073857 67 249 9.0 18.0 0.00 0.00 0.00 27 1001.8
20260505073350 67 245 7.0 14.0 0.00 0.00 0.00 27 1001.8
20260505072847 68 243 8.0 15.0 0.00 0.00 0.00 26 1001.6
20260505072343 68 255 9.0 13.0 0.00 0.00 0.00 26 1001.7
20260505071839 68 251 6.0 15.0 0.00 0.00 0.00 26 1002.0
20260505071335 69 244 7.0 19.0 0.00 0.00 0.00 26 1001.8
20260505070834 69 245 11.0 19.0 0.00 0.00 0.00 25 1001.8
20260505070330 69 243 8.0 16.0 0.00 0.00 0.00 25 1001.7
20260505065825 69 254 9.0 19.0 0.00 0.00 0.00 25 1001.3
20260505065322 69 251 15.0 18.0 0.00 0.00 0.00 25 1001.7
20260505064819 70 247 13.0 18.0 0.00 0.00 0.00 24 1001.6
20260505064316 70 243 15.0 21.0 0.00 0.00 0.00 24 1001.7
20260505063814 70 244 15.0 20.0 0.00 0.00 0.00 24 1001.7
20260505063310 70 239 15.0 20.0 0.00 0.00 0.00 24 1001.6
20260505062806 71 248 13.0 22.0 0.00 0.00 0.00 24 1001.9
20260505062304 71 238 14.0 22.0 0.00 0.00 0.00 23 1001.4
20260505061800 71 245 12.0 19.0 0.00 0.00 0.00 24 1001.7
20260505061259 71 243 14.0 17.0 0.00 0.00 0.00 23 1001.7
20260505060756 71 252 11.0 20.0 0.00 0.00 0.00 23 1001.8
20260505060253 72 243 19.0 21.0 0.00 0.00 0.00 23 1001.6
20260505055749 72 243 12.0 23.0 0.00 0.00 0.00 22 1001.9
20260505055245 73 244 18.0 24.0 0.00 0.00 0.00 22 1001.6
20260505054742 72 241 11.0 21.0 0.00 0.00 0.00 22 1001.9
20260505054240 73 242 9.0 23.0 0.00 0.00 0.00 22 1001.7
20260505053738 73 237 16.0 25.0 0.00 0.00 0.00 22 1001.8
20260505053234 73 245 17.0 26.0 0.00 0.00 0.00 22 1001.7
20260505052731 73 233 20.0 27.0 0.00 0.00 0.00 22 1001.8
20260505052228 73 240 11.0 28.0 0.00 0.00 0.00 22 1002.0
20260505051725 73 239 10.0 24.0 0.00 0.00 0.00 22 1001.8
20260505051223 74 234 14.0 24.0 0.00 0.00 0.00 21 1001.9
20260505050721 74 233 15.0 24.0 0.00 0.00 0.00 21 1001.6
20260505050219 74 244 19.0 24.0 0.00 0.00 0.00 21 1001.7
20260505041649 74 235 15.0 22.0 0.00 0.00 0.00 22 1002.0
20260505041146 74 236 14.0 23.0 0.00 0.00 0.00 22 1002.1
20260505040643 74 229 11.0 20.0 0.00 0.00 0.00 22 1002.2
20260505040140 74 245 15.0 24.0 0.00 0.00 0.00 22 1002.1
20260505035636 75 236 15.0 23.0 0.00 0.00 0.00 22 1002.0
20260505035133 75 238 12.0 22.0 0.00 0.00 0.00 21 1002.1
20260505034629 75 235 17.0 28.0 0.00 0.00 0.00 21 1001.8
20260505034127 75 243 11.0 26.0 0.00 0.00 0.00 21 1001.9
20260505033623 75 246 16.0 26.0 0.00 0.00 0.00 21 1001.7
20260505033122 75 243 13.0 25.0 0.00 0.00 0.00 21 1001.9
20260505032619 76 234 16.0 31.0 0.00 0.00 0.00 20 1001.6
20260505032115 76 239 8.0 27.0 0.00 0.00 0.00 20 1001.7
20260505031613 76 227 20.0 29.0 0.00 0.00 0.00 19 1001.9
20260505031109 76 224 19.0 27.0 0.00 0.00 0.00 19 1001.7
20260505030606 76 230 11.0 22.0 0.00 0.00 0.00 18 1001.8
20260505025557 76 229 12.0 23.0 0.00 0.00 0.00 16 1001.8
20260505025057 76 228 19.0 21.0 0.00 0.00 0.00 16 1001.7
20260505024553 77 231 16.0 23.0 0.00 0.00 0.00 15 1001.7
20260505024051 77 238 17.0 25.0 0.00 0.00 0.00 15 1001.7
20260505023548 77 232 18.0 22.0 0.00 0.00 0.00 15 1001.7
20260505023045 77 233 17.0 25.0 0.00 0.00 0.00 15 1001.6
20260505022543 77 227 13.0 26.0 0.00 0.00 0.00 15 1001.4
20260505022040 78 234 10.0 24.0 0.00 0.00 0.00 15 1001.4
20260505021536 78 226 16.0 24.0 0.00 0.00 0.00 14 1001.4
20260505021032 78 234 7.0 24.0 0.00 0.00 0.00 14 1001.6
20260505020527 78 241 18.0 27.0 0.00 0.00 0.00 14 1001.4
20260505020024 78 245 12.0 23.0 0.00 0.00 0.00 14 1001.6
20260505015521 79 238 20.0 27.0 0.00 0.00 0.00 14 1001.4
20260505015018 79 244 15.0 22.0 0.00 0.00 0.00 14 1001.2
20260505014515 79 241 11.0 22.0 0.00 0.00 0.00 14 1001.2
20260505014013 79 232 13.0 21.0 0.00 0.00 0.00 14 1001.1
20260505013509 79 240 12.0 22.0 0.00 0.00 0.00 15 1001.3
20260505013007 79 240 12.0 23.0 0.00 0.00 0.00 14 1001.3
20260505012505 80 239 15.0 20.0 0.00 0.00 0.00 14 1001.2
20260505012001 80 232 13.0 21.0 0.00 0.00 0.00 13 1001.2
20260505011457 80 236 17.0 26.0 0.00 0.00 0.00 13 1001.1
20260505010954 80 232 15.0 24.0 0.00 0.00 0.00 13 1001.1
20260505010450 81 226 15.0 26.0 0.00 0.00 0.00 14 1000.9
20260505005946 81 235 20.0 23.0 0.00 0.00 0.00 13 1001.0
20260505005443 81 238 22.0 29.0 0.00 0.00 0.00 13 1001.1
20260505004941 82 236 13.0 24.0 0.00 0.00 0.00 13 1001.1
20260505004437 82 233 20.0 25.0 0.00 0.00 0.00 13 1001.0
20260505003934 82 229 17.0 31.0 0.00 0.00 0.00 13 1001.1
20260505003431 82 231 25.0 28.0 0.00 0.00 0.00 13 1001.2
20260505002927 82 239 25.0 27.0 0.00 0.00 0.00 13 1001.1
20260505002423 82 230 20.0 22.0 0.00 0.00 0.00 12 1001.3
20260505001922 83 227 10.0 26.0 0.00 0.00 0.00 12 1001.4
20260505001419 83 235 18.0 26.0 0.00 0.00 0.00 12 1001.4
20260505000916 83 228 13.0 25.0 0.00 0.00 0.00 12 1001.4
20260505000414 83 240 15.0 32.0 0.00 0.00 0.00 13 1001.4
20260504235911 83 249 14.0 30.0 0.00 0.00 0.00 13 1001.3
20260504235408 83 250 10.0 23.0 0.00 0.00 0.00 19 1001.4
20260504234904 83 236 12.0 20.0 0.00 0.00 0.00 19 1001.4
20260504234402 84 237 10.0 22.0 0.00 0.00 0.00 19 1001.3
20260504233858 84 229 11.0 20.0 0.00 0.00 0.00 17 1001.4
20260504233354 84 234 14.0 22.0 0.00 0.00 0.00 18 1001.6
20260504232850 84 224 12.0 21.0 0.00 0.00 0.00 19 1001.3
20260504232348 83 230 9.0 18.0 0.00 0.00 0.00 20 1001.3
20260504231844 84 250 12.0 19.0 0.00 0.00 0.00 21 1001.4
20260504231341 84 234 10.0 15.0 0.00 0.00 0.00 22 1001.4
20260504230837 84 225 11.0 22.0 0.00 0.00 0.00 21 1001.6
20260504230335 84 226 21.0 24.0 0.00 0.00 0.00 20 1001.6
20260504225834 84 244 14.0 18.0 0.00 0.00 0.00 20 1001.8
20260504225330 84 230 11.0 18.0 0.00 0.00 0.00 19 1001.8
20260504224827 83 255 17.0 24.0 0.00 0.00 0.00 19 1001.6
20260504224324 85 224 16.0 22.0 0.00 0.00 0.00 18 1001.7
20260504223821 85 232 9.0 25.0 0.00 0.00 0.00 18 1001.9
20260504223316 85 235 9.0 22.0 0.00 0.00 0.00 18 1001.9
20260504222813 85 230 14.0 29.0 0.00 0.00 0.00 17 1002.0
20260504222310 85 236 20.0 24.0 0.00 0.00 0.00 17 1002.1
20260504221809 85 250 10.0 17.0 0.00 0.00 0.00 19 1002.1
20260504221305 85 247 19.0 28.0 0.00 0.00 0.00 19 1002.1
20260504220802 85 245 20.0 23.0 0.00 0.00 0.00 18 1001.9
20260504220258 85 231 19.0 28.0 0.00 0.00 0.00 18 1002.4
20260504215756 86 246 7.0 22.0 0.00 0.00 0.00 19 1002.1
20260504215252 85 269 4.0 23.0 0.00 0.00 0.00 17 1002.0
20260504214748 87 224 23.0 23.0 0.00 0.00 0.00 18 1002.2
20260504214245 86 237 17.0 22.0 0.00 0.00 0.00 19 1002.3
20260504213742 85 229 9.0 20.0 0.00 0.00 0.00 19 1002.3
20260504213238 84 248 18.0 26.0 0.00 0.00 0.00 19 1002.3
20260504212735 84 252 16.0 25.0 0.00 0.00 0.00 21 1002.4
20260504212231 85 253 11.0 20.0 0.00 0.00 0.00 20 1002.6
20260504211729 86 229 15.0 24.0 0.00 0.00 0.00 18 1002.6
20260504211225 85 232 19.0 24.0 0.00 0.00 0.00 19 1002.9
20260504210723 85 244 12.0 26.0 0.00 0.00 0.00 21 1003.0
20260504210220 85 243 7.0 24.0 0.00 0.00 0.00 20 1002.9